Weather History for Quincy, IL

Change the Weather History Date:

Thursday, November 11, 2010

  Actual Average Record
Temperature  
Mean Temperature 52 °F 45 °F  
Max Temperature 57 °F 54 °F 79 °F (1949)
Min Temperature 46 °F 36 °F 12 °F (1950)
Degree Days  
Heating Degree Days 14 20  
Month to date heating degree days 197  
Since 1 July heating degree days 621  
Cooling Degree Days 0 0  
Month to date cooling degree days 0  
Year to date cooling degree days 1093  
Growing Degree Days 2 (Base 50)    
Moisture  
Dew Point 44 °F    
Average Humidity 82    
Maximum Humidity 90    
Minimum Humidity 69    
Precipitation  
Precipitation 0.07 in 0.10 in 1.10 in (1982)
Month to date precipitation 1.12  
Year to date precipitation 33.18  
Sea Level Pressure  
Sea Level Pressure 30.30 in    
Wind  
Wind Speed 8 mph (NNE)    
Max Wind Speed 13 mph    
Max Gust Speed -    
Visibility 10 miles    
Events Rain    
T = Trace of Precipitation, MM = Missing Value Source: NWS Daily Summary

Daily Weather History Graph

Daily Weather History Graph

Search for Another Location

Airport:

Trip Planner

Search our weather history database for the weather conditions in past years. The results will help you decide how hot, cold, wet, or windy it might be!

Date:

Astronomy

Nov. 11, 2010 Rise Set
Actual Time 6:45 AM CST 4:51 PM CST
Civil Twilight 6:16 AM CST 5:20 PM CST
Nautical Twilight 5:43 AM CST 5:53 PM CST
Astronomical Twilight 5:12 AM CST 6:24 PM CST
Moon 11:45 AM CST (11/11) 9:57 PM CST (11/11)
Length of Visible Light 11h 04m
Length of Day
10h 06m
Waxing Crescent, 32% of the Moon is Illuminated
Nov 11
Waxing Crescent
Nov 13
First Quarter
Nov 21
Full
Nov 28
Last Quarter
Dec 5
New

Hourly Weather History & Observations

Time (CST) Temp. Windchill Dew Point Humidity Pressure Visibility Wind Dir Wind Speed Gust Speed Precip Events Conditions
12:54 AM 57.9 °F - 52.0 °F 81% 30.13 in 10.0 mi SW 4.6 mph - 0.00 in   Overcast
1:54 AM 54.0 °F - 50.0 °F 86% 30.15 in 10.0 mi NW 6.9 mph - N/A   Clear
2:54 AM 51.1 °F - 48.0 °F 89% 30.17 in 10.0 mi NW 8.1 mph - N/A   Clear
3:54 AM 48.9 °F - 46.0 °F 90% 30.19 in 10.0 mi NW 8.1 mph - N/A   Clear
4:54 AM 46.9 °F - 44.1 °F 90% 30.22 in 10.0 mi NNW 8.1 mph - N/A   Clear
5:54 AM 46.9 °F - 43.0 °F 86% 30.25 in 8.0 mi North 10.4 mph - N/A   Scattered Clouds
6:54 AM 46.0 °F 42.5 °F 43.0 °F 89% 30.27 in 7.0 mi NE 6.9 mph - N/A   Partly Cloudy
7:54 AM 48.0 °F - 44.1 °F 86% 30.30 in 9.0 mi NNE 9.2 mph - N/A   Scattered Clouds
8:54 AM 48.9 °F - 43.0 °F 80% 30.31 in 10.0 mi NNE 9.2 mph - N/A   Mostly Cloudy
9:54 AM 51.1 °F - 42.1 °F 71% 30.33 in 10.0 mi North 11.5 mph - N/A   Mostly Cloudy
10:54 AM 52.0 °F - 42.1 °F 69% 30.34 in 10.0 mi North 12.7 mph - N/A   Clear
11:46 AM 50.0 °F - 41.0 °F 71% 30.34 in 10.0 mi North 12.7 mph - N/A   Overcast
11:54 AM 50.0 °F - 41.0 °F 71% 30.35 in 10.0 mi North 9.2 mph - 0.00 in Rain Light Rain
12:31 PM 48.2 °F - 44.6 °F 87% 30.33 in 10.0 mi NE 6.9 mph - 0.07 in Rain Light Rain
12:54 PM 50.0 °F - 46.0 °F 86% 30.32 in 10.0 mi NE 8.1 mph - 0.07 in   Partly Cloudy
1:54 PM 52.0 °F - 46.0 °F 80% 30.32 in 10.0 mi North 9.2 mph - N/A   Mostly Cloudy
2:37 PM 51.8 °F - 44.6 °F 76% 30.34 in 10.0 mi NNW 9.2 mph - 0.00 in Rain Light Rain
2:54 PM 51.1 °F - 45.0 °F 80% 30.35 in 10.0 mi North 6.9 mph - 0.00 in   Overcast
3:54 PM 51.1 °F - 44.1 °F 77% 30.36 in 10.0 mi NE 8.1 mph - N/A   Overcast
4:54 PM 50.0 °F - 43.0 °F 77% 30.35 in 10.0 mi NE 8.1 mph - N/A   Overcast
5:24 PM 50.0 °F - 42.8 °F 76% 30.34 in 10.0 mi NE 10.4 mph - N/A   Overcast
5:54 PM 48.0 °F - 43.0 °F 83% 30.36 in 10.0 mi NNE 9.2 mph - N/A   Scattered Clouds
6:54 PM 46.0 °F 41.9 °F 43.0 °F 89% 30.36 in 10.0 mi NE 8.1 mph - N/A   Mostly Cloudy
7:54 PM 46.9 °F - 43.0 °F 86% 30.36 in 10.0 mi NE 6.9 mph - N/A   Mostly Cloudy
8:54 PM 46.9 °F - 43.0 °F 86% 30.35 in 10.0 mi NE 9.2 mph - N/A   Overcast
9:54 PM 46.9 °F - 42.1 °F 83% 30.34 in 10.0 mi NE 9.2 mph - N/A   Partly Cloudy
10:54 PM 46.9 °F - 43.0 °F 86% 30.35 in 10.0 mi North 4.6 mph - N/A   Overcast
11:54 PM 46.0 °F 42.5 °F 43.0 °F 89% 30.34 in 10.0 mi NNE 6.9 mph - N/A   Mostly Cloudy